Wind_Speed
7 8 8 9 9 12 14 16 18 20 22 23 24 24 25 26 28 30 33 35 37 39 40 41 42 42 42 42 42 43 43 43 43 43 42 42 41 41 41 42 43 44 44 45
7 8 9 10 11 13 15 18 20 22 24 24 24 25 25 26 28 31 34 36 38 40 41 42 42 42 42 43 43 43 44 44 43 43 42 42 41 41 42 41 41 42 42 42
7 8 9 10 11 13 15 17 20 22 24 24 24 25 25 26 29 32 35 37 39 41 42 42 42 43 43 43 44 44 45 44 44 43 42 42 42 41 41 41 41 41 41 41
9 9 11 11 12 13 16 18 20 22 24 24 25 25 25 28 31 34 36 39 40 41 42 42 43 43 44 45 45 45 45 45 44 43 42 42 41 40 40 40 40 40 39 39
11 12 12 13 14 15 18 20 21 23 24 25 26 27 28 30 33 36 38 39 41 41 41 42 43 44 45 45 45 45 45 45 44 43 42 41 40 39 39 39 39 38 37 37
13 14 14 13 15 17 19 21 22 23 24 25 26 28 30 32 34 37 39 40 40 41 41 42 43 44 45 45 45 45 45 44 43 42 41 40 39 39 39 38 37 36 36 35
15 17 17 18 19 21 22 23 23 24 25 26 27 28 30 33 35 38 39 39 40 41 41 42 43 44 46 45 45 46 45 44 43 42 41 40 39 39 38 37 36 35 34 32
20 21 22 22 22 22 23 23 24 24 25 27 28 30 32 34 36 38 39 39 40 41 41 42 44 45 46 46 46 46 46 44 43 42 41 40 39 38 37 36 35 34 32 30
23 23 22 22 23 22 22 22 23 24 26 27 29 31 33 35 37 38 38 39 40 41 42 43 44 46 46 46 46 46 45 44 43 41 40 40 39 37 36 34 34 32 30 27
25 24 23 23 23 22 22 22 24 25 26 28 29 31 34 36 37 38 38 39 40 41 42 43 44 46 46 46 46 46 45 44 42 40 40 40 37 36 34 33 32 30 28 26
25 24 24 24 24 25 25 25 26 28 29 30 31 34 35 37 38 38 38 39 41 42 43 44 45 46 46 46 45 45 45 43 41 40 40 38 37 35 33 32 30 29 26 25
25 24 25 25 25 26 27 28 29 30 31 32 34 36 37 38 39 39 39 40 41 43 43 44 45 46 46 46 45 44 44 42 40 39 39 38 36 34 32 31 29 27 25 23
26 26 27 27 28 28 29 30 31 32 33 34 36 38 39 39 39 39 40 41 42 43 44 45 45 46 46 45 45 44 43 41 39 38 38 36 35 33 31 29 28 25 24 22
26 28 29 30 30 31 31 32 33 35 35 36 37 38 39 40 40 41 41 42 43 44 45 45 46 46 45 45 44 43 42 41 38 37 37 35 34 32 30 28 26 24 22 20
27 28 30 31 32 33 33 34 35 36 37 38 39 39 40 40 41 42 44 45 45 45 45 45 46 45 45 45 43 42 41 39 37 36 35 34 32 31 30 27 25 23 21 19
28 29 31 32 33 34 36 37 38 39 39 40 40 41 42 42 43 45 46 47 47 46 46 46 45 44 43 43 42 41 39 37 35 35 34 32 31 30 28 27 24 22 19 17
29 31 32 34 35 36 38 39 40 41 42 43 43 44 44 45 45 47 48 48 48 47 47 46 44 43 42 41 40 39 37 35 34 33 31 29 29 28 27 25 23 21 19 17
32 33 35 37 38 40 41 42 43 44 44 45 46 47 48 48 49 49 49 49 49 48 47 46 44 42 40 39 38 37 35 33 31 30 28 27 26 26 25 24 23 21 19 16
35 37 38 40 42 44 45 46 46 46 47 48 49 50 51 51 51 51 50 49 48 48 47 45 42 40 39 37 35 34 33 30 29 27 25 24 24 23 23 22 21 21 19 17
40 41 42 43 45 46 48 49 49 50 51 51 52 53 53 53 52 51 50 48 48 47 46 43 40 39 37 34 33 32 30 28 27 25 22 21 21 21 21 20 20 19 19 17
44 45 45 46 48 49 51 52 53 54 54 55 55 55 55 54 53 51 50 48 46 45 42 40 38 37 35 32 30 29 28 25 24 22 20 18 18 18 18 19 18 17 17 17
47 48 48 49 51 52 54 55 56 56 57 58 58 57 56 54 52 50 48 46 44 42 39 38 36 34 32 29 28 26 25 23 21 20 17 16 15 15 15 16 16 15 15 15
48 49 51 52 54 55 57 58 58 58 58 58 57 56 54 52 50 48 45 43 42 39 37 35 33 31 29 28 26 24 23 22 20 17 15 13 13 13 13 13 13 13 13 13
52 54 55 56 57 58 58 58 58 58 57 56 55 53 52 49 47 44 42 40 38 37 35 33 31 29 27 26 24 22 21 20 18 15 13 11 10 9 9 10 10 11 11 11
57 57 58 58 58 58 58 58 57 56 55 54 52 50 48 46 43 41 39 37 35 35 33 31 28 26 25 23 22 21 19 19 17 14 11 9 8 7 6 6 7 8 9 9
59 59 59 58 58 58 57 56 54 53 51 49 47 45 43 41 39 37 35 33 32 30 29 26 24 24 22 21 20 19 18 17 15 12 10 8 6 5 3 3 3 4 6 7
61 60 60 59 58 57 56 54 52 49 47 45 43 41 39 37 36 34 33 31 30 28 26 24 23 21 21 19 19 18 16 15 13 12 10 8 7 6 4 2 1 1 2 4
Wind_Direction
316 314 312 314 316 318 322 330 337 340 342 340 336 333 332 330 328 327 327 327 326 326 327 329 330 330 329 328 328 327 325 323 321 319 317 314 312 310 308 306 304 302 299 295
309 304 302 305 308 313 320 329 335 337 336 332 329 329 330 329 326 325 326 326 327 328 329 330 331 331 330 330 329 328 327 325 323 321 319 317 315 313 312 310 308 306 304 300
320 310 307 300 306 312 317 324 329 329 328 326 325 327 327 325 325 326 327 327 328 329 330 331 331 331 331 331 330 330 329 327 325 323 322 320 318 316 315 313 311 309 306 303
323 317 312 311 311 312 316 320 322 323 324 324 324 325 327 327 327 328 328 329 330 330 331 331 332 332 332 332 332 331 330 328 327 325 324 323 322 320 319 317 315 312 309 306
323 320 318 320 318 315 315 319 322 322 322 323 324 326 328 328 328 328 328 329 330 331 331 332 333 333 333 333 333 332 331 330 328 327 327 326 324 323 322 321 318 316 313 310
318 317 319 323 318 318 318 321 320 320 322 323 324 325 326 326 326 327 328 329 330 331 332 333 333 333 334 334 333 333 332 331 330 330 329 328 327 326 325 324 323 321 317 313
318 319 320 321 323 323 323 323 321 321 322 322 322 323 324 324 326 327 328 329 330 331 333 333 334 334 335 335 335 335 334 333 332 332 332 331 330 329 328 327 327 326 323 318
315 315 316 317 320 322 321 319 317 318 319 320 321 322 322 323 325 326 328 329 331 332 333 333 334 335 335 336 336 336 336 334 334 334 334 334 333 332 331 331 331 331 329 326
303 306 311 313 316 317 315 313 313 315 317 318 319 320 321 323 325 326 328 329 330 331 332 333 334 335 336 337 337 337 337 336 336 335 336 336 335 335 335 334 335 335 334 333
299 305 309 310 311 311 310 310 311 314 316 318 319 320 322 323 325 326 327 328 329 330 332 333 334 335 336 337 337 338 338 338 338 338 338 338 338 338 338 338 338 339 339 339
296 302 304 306 308 309 309 311 313 314 316 318 319 321 322 323 324 325 326 327 329 330 332 333 334 335 336 337 337 338 339 339 339 339 340 341 341 341 341 341 341 343 343 345
295 298 300 303 304 306 308 310 311 313 315 317 318 320 320 321 323 324 325 326 328 329 331 332 334 335 336 336 337 339 339 339 340 341 342 342 343 343 343 343 344 347 348 350
293 296 298 301 302 303 305 307 309 311 313 315 316 317 319 321 322 324 325 327 328 329 331 332 333 334 335 336 337 338 339 339 340 342 343 344 345 346 346 346 347 349 351 353
289 292 295 297 299 300 302 304 306 308 310 313 315 316 319 320 320 321 324 326 328 329 330 331 332 334 334 335 337 338 339 339 341 343 345 346 347 348 350 350 349 352 354 356
285 287 290 293 295 297 299 302 304 306 309 312 314 315 317 318 318 318 320 322 325 327 329 329 331 332 333 334 335 336 338 340 341 343 346 348 349 351 352 353 353 354 358 1
285 286 289 291 294 297 299 302 305 308 309 311 313 314 314 315 316 317 318 318 321 323 325 327 328 330 331 332 333 335 338 339 341 343 347 350 353 353 354 356 357 358 2 5
285 286 289 291 294 297 299 302 304 306 307 309 310 311 311 312 314 315 315 316 317 319 322 324 325 326 328 329 332 334 337 339 340 344 348 351 354 357 359 2 4 5 9 11
284 285 287 290 293 294 296 299 301 303 304 305 306 307 307 310 311 312 313 313 314 315 318 320 322 324 325 326 329 332 335 337 339 343 347 351 356 1 5 8 11 12 15 17
281 282 283 285 288 290 293 295 297 299 300 301 302 303 304 306 308 309 311 311 311 313 315 317 319 321 322 324 327 329 332 335 337 341 346 351 356 2 7 10 13 17 21 22
277 279 281 283 285 287 289 291 293 294 295 296 298 300 301 303 304 306 307 308 309 310 312 314 316 317 319 321 324 326 329 331 334 338 343 348 354 1 7 10 14 19 23 25
281 282 283 283 284 285 286 287 289 290 292 293 295 297 298 300 301 303 304 305 306 306 308 309 311 313 314 317 320 323 325 328 332 336 340 345 352 360 6 12 17 22 26 30
284 285 285 284 284 284 284 286 287 289 290 292 294 295 297 298 299 300 301 301 302 302 303 305 307 308 310 313 316 319 322 324 329 333 337 343 350 359 6 14 19 25 30 35
285 284 283 282 282 282 283 284 286 288 289 291 292 294 295 296 297 297 297 297 297 297 298 300 301 303 306 309 311 315 318 320 323 327 331 337 346 356 5 15 22 28 34 42
281 280 280 280 281 282 284 285 287 288 289 290 291 292 293 293 293 293 293 292 291 291 293 294 295 298 301 304 307 310 313 315 316 318 322 326 335 348 2 14 26 34 39 47
280 281 282 283 283 284 285 286 287 288 289 290 291 291 291 290 289 289 288 287 286 288 288 288 289 292 295 297 301 304 307 309 309 309 310 314 321 334 352 11 28 38 44 51
283 284 285 285 286 286 287 288 288 289 289 290 290 289 288 287 286 284 284 283 283 282 281 283 285 287 288 291 294 297 299 300 301 301 298 298 300 303 323 355 26 43 48 54
285 285 286 286 287 287 288 288 289 289 289 289 289 287 286 284 283 281 279 277 275 275 277 276 279 281 280 283 287 289 290 290 290 289 288 283 276 270 274 293 319 56 71 65
Height
5858 5857 5855 5854 5852 5851 5849 5847 5845 5842 5840 5838 5835 5832 5829 5825 5820 5816 5811 5806 5800 5793 5786 5779 5771 5763 5755 5747 5739 5731 5723 5715 5707 5699 5692 5684 5677 5670 5663 5656 5649 5643 5637 5631
5856 5855 5853 5852 5851 5849 5847 5844 5842 5840 5838 5835 5832 5829 5825 5821 5816 5812 5806 5801 5794 5787 5780 5772 5764 5756 5748 5740 5731 5723 5715 5706 5698 5690 5682 5674 5666 5659 5652 5644 5637 5629 5623 5616
5854 5852 5851 5851 5849 5847 5845 5843 5841 5838 5836 5832 5828 5825 5822 5818 5813 5807 5801 5795 5788 5781 5773 5765 5757 5749 5741 5732 5724 5715 5706 5698 5689 5681 5673 5664 5656 5648 5640 5633 5625 5617 5610 5603
5851 5851 5849 5850 5846 5844 5842 5840 5838 5835 5832 5828 5824 5821 5818 5813 5807 5802 5796 5789 5782 5774 5767 5759 5751 5742 5733 5725 5716 5707 5698 5690 5681 5672 5664 5655 5647 5638 5630 5622 5614 5606 5598 5590
5849 5847 5846 5845 5843 5841 5839 5836 5834 5831 5827 5823 5819 5815 5812 5807 5802 5796 5790 5783 5776 5768 5760 5752 5744 5735 5727 5718 5709 5700 5691 5682 5673 5664 5655 5646 5638 5629 5621 5612 5603 5595 5587 5579
5845 5844 5843 5843 5840 5837 5836 5832 5830 5826 5822 5819 5815 5811 5807 5802 5796 5790 5783 5777 5769 5762 5754 5746 5738 5729 5720 5711 5702 5693 5684 5674 5665 5656 5647 5638 5629 5620 5612 5603 5594 5585 5577 5569
5842 5840 5838 5837 5835 5833 5831 5828 5824 5821 5817 5814 5810 5807 5802 5796 5790 5784 5777 5771 5763 5755 5748 5740 5731 5723 5714 5704 5695 5686 5676 5667 5657 5648 5639 5630 5622 5613 5604 5595 5586 5577 5569 5560
5837 5835 5836 5832 5830 5828 5826 5822 5819 5815 5812 5808 5805 5800 5796 5790 5785 5778 5772 5764 5757 5749 5741 5733 5725 5716 5707 5698 5688 5679 5669 5660 5650 5641 5632 5623 5614 5605 5596 5588 5579 5570 5562 5553
5833 5833 5830 5827 5825 5823 5820 5817 5814 5810 5807 5803 5799 5795 5790 5785 5779 5772 5765 5758 5751 5743 5735 5727 5719 5710 5701 5692 5682 5673 5663 5653 5644 5635 5626 5617 5608 5599 5590 5582 5573 5565 5556 5549
5827 5826 5824 5822 5820 5818 5815 5812 5808 5805 5802 5798 5794 5789 5784 5778 5772 5766 5759 5752 5745 5737 5729 5721 5713 5704 5695 5686 5676 5667 5657 5648 5639 5630 5621 5611 5602 5594 5585 5577 5569 5560 5552 5545
5821 5820 5818 5816 5813 5810 5808 5805 5802 5798 5795 5791 5787 5782 5777 5772 5765 5759 5752 5745 5738 5731 5723 5715 5707 5698 5689 5680 5671 5661 5652 5643 5634 5625 5616 5607 5598 5589 5581 5573 5565 5557 5550 5543
5816 5814 5812 5809 5806 5804 5801 5798 5795 5792 5788 5784 5780 5775 5770 5764 5758 5752 5745 5739 5732 5724 5717 5709 5701 5692 5683 5675 5666 5657 5647 5638 5629 5621 5612 5603 5594 5586 5577 5570 5562 5555 5548 5541
5808 5806 5804 5802 5799 5796 5793 5791 5788 5785 5781 5778 5773 5768 5762 5757 5751 5745 5738 5732 5725 5718 5710 5703 5695 5686 5678 5669 5660 5652 5643 5634 5626 5617 5609 5600 5591 5583 5575 5568 5560 5553 5547 5541
5801 5799 5796 5794 5791 5789 5786 5783 5780 5777 5774 5770 5765 5760 5754 5749 5743 5737 5731 5724 5718 5711 5704 5696 5689 5681 5672 5664 5656 5647 5639 5630 5622 5614 5606 5597 5589 5581 5573 5566 5559 5553 5547 5541
5794 5791 5789 5786 5784 5781 5778 5775 5772 5769 5765 5761 5756 5751 5745 5740 5734 5728 5723 5716 5710 5704 5697 5690 5683 5675 5667 5659 5651 5643 5635 5627 5619 5611 5603 5595 5587 5580 5572 5565 5558 5552 5547 5542
5786 5783 5781 5778 5775 5772 5769 5766 5763 5759 5755 5751 5747 5742 5737 5731 5726 5720 5714 5708 5702 5696 5690 5683 5676 5669 5662 5654 5647 5639 5631 5624 5616 5609 5601 5594 5586 5579 5572 5565 5558 5553 5548 5543
5777 5774 5772 5769 5766 5763 5760 5757 5753 5750 5746 5742 5737 5732 5727 5722 5717 5712 5706 5700 5694 5688 5682 5676 5670 5663 5656 5649 5642 5635 5628 5621 5614 5607 5600 5593 5586 5579 5572 5566 5559 5554 5549 5545
5766 5764 5762 5759 5757 5754 5750 5747 5744 5740 5736 5732 5727 5723 5718 5713 5708 5702 5697 5691 5685 5680 5674 5669 5663 5657 5650 5644 5637 5631 5625 5618 5612 5605 5599 5593 5587 5580 5574 5567 5562 5556 5552 5547
5755 5753 5750 5748 5745 5742 5739 5736 5733 5729 5725 5721 5716 5712 5707 5702 5698 5693 5687 5682 5676 5671 5666 5661 5655 5650 5644 5638 5633 5627 5621 5615 5609 5604 5598 5593 5587 5581 5576 5570 5564 5559 5554 5550
5743 5741 5739 5737 5734 5731 5727 5724 5720 5717 5713 5708 5704 5700 5696 5691 5686 5682 5677 5672 5667 5662 5657 5652 5648 5643 5638 5632 5628 5623 5618 5612 5607 5602 5597 5592 5588 5583 5577 5572 5567 5562 5558 5554
5731 5729 5727 5724 5721 5718 5714 5710 5707 5703 5699 5695 5691 5687 5684 5680 5675 5670 5666 5662 5657 5652 5648 5644 5640 5636 5631 5627 5622 5618 5614 5609 5605 5600 5596 5592 5588 5583 5579 5574 5570 5565 5561 5558
5718 5716 5713 5710 5706 5703 5699 5695 5692 5688 5685 5681 5677 5674 5670 5666 5662 5658 5654 5650 5646 5642 5639 5635 5631 5628 5624 5620 5617 5613 5610 5606 5602 5598 5594 5591 5587 5584 5580 5576 5572 5568 5565 5562
5703 5700 5696 5693 5689 5686 5683 5679 5676 5673 5669 5666 5662 5659 5655 5652 5648 5645 5642 5638 5634 5631 5628 5625 5623 5620 5617 5614 5611 5608 5605 5602 5599 5596 5593 5590 5587 5584 5581 5578 5574 5571 5568 5566
5684 5680 5678 5675 5671 5668 5666 5663 5660 5656 5653 5650 5647 5643 5640 5637 5634 5631 5628 5625 5622 5620 5617 5615 5613 5612 5609 5607 5605 5602 5600 5597 5595 5593 5591 5588 5586 5584 5581 5579 5576 5574 5572 5569
5664 5662 5659 5656 5653 5650 5648 5645 5642 5639 5636 5634 5631 5627 5624 5621 5619 5617 5615 5612 5610 5608 5606 5605 5604 5603 5602 5600 5598 5597 5595 5593 5591 5589 5588 5586 5585 5583 5581 5580 5577 5576 5574 5572
5645 5642 5640 5637 5634 5632 5629 5627 5625 5622 5619 5617 5615 5612 5609 5607 5605 5604 5602 5600 5599 5598 5596 5596 5595 5595 5594 5593 5592 5590 5589 5588 5587 5586 5585 5584 5583 5582 5581 5580 5578 5577 5576 5575
5624 5622 5620 5617 5615 5612 5610 5608 5607 5605 5603 5601 5599 5597 5595 5593 5592 5590 5590 5588 5588 5588 5587 5587 5587 5587 5586 5586 5585 5584 5583 5583 5582 5582 5581 5581 5580 5580 5580 5579 5578 5577 5577 5576